Location: *
(28.3744°N, 81.5492°W)
Time: 03:19:52
(UTC+00:00)

ADEOS II - Pass Details

Date: 15 June 2025
Orbit: 794 x 796 km, 98.7° (Epoch: 11 July)

Event Time Altitude Azimuth Distance (km) Brightness Sun altitude
Rises 07:35:32 0° 19° (NNE) 3,295 6.4 -29.7°
Reaches altitude 10° 07:37:56 10° 24° (NNE) 2,363 5.4 -29.4°
Maximum altitude 07:43:01 53° 101° (E) 968 2.5 -28.8°
Enters shadow 07:43:09 53° 106° (ESE) 969 2.5 -28.7°
